User: anonymous   Login
Location: Unspecified
(0.0000°N, 0.0000°E)
Time: 09:37:59
(UTC+00:00)
Language:

MTI - Orbit

View from above orbital plane
View from above orbital plane
View from above satellite
View from above satellite

Ground track
Ground track

The orbit data is extracted from the following two-line orbital elements,

1 26102U 00014A   20220.23488166  .00004890  00000-0  71397-4 0  9992
2 26102  97.4965 104.9410 0008857  50.1244 310.0691 15.56145075132416
Epoch (UTC): 07 August 2020 05:38:13
Eccentricity: 0.0008857
inclination: 97.4965°
perigee height: 393 km
apogee height: 405 km
right ascension of ascending node: 104.9410°
argument of perigee: 50.1244°
revolutions per day: 15.56145075
mean anomaly at epoch: 310.0691°
orbit number at epoch: 13241

The dashed part of the orbit path shows where the satellite is in the earth's shadow,  

DLR